User: anonymous   Login
Location: Azenweiler
(47.8027°N, 9.4096°E)
Time: 02:04:20
(UTC+00:00)
Language:

CZ-4 R/B - Orbit

View from above orbital plane
View from above orbital plane
View from above satellite
View from above satellite

Ground track
Ground track

The orbit is defined by the following mean orbital elements,

1 28059U          26041.90772008 +.00000000 +00000-0 +13827-3 0 00007
2 28059  98.6850  35.7683 0047355 314.5123  45.2207 14.54990791    06
Epoch (UTC): 10 February 2026 21:47:07
Eccentricity: 0.0047355
inclination: 98.6850°
perigee height: 676 km
apogee height: 743 km
right ascension of ascending node: 35.7683°
argument of perigee: 314.5123°
revolutions per day: 14.54990791
mean anomaly at epoch: 45.2207°

The dashed part of the orbit path shows where the satellite is in the earth's shadow,  

DLR